Location: Demmingen
(48.6757°N, 10.4375°E)
Time: 23:23:23
(UTC+00:00)

Cosmos 1745 Rocket - Pass Details

Date: 11 August 2024
Orbit: 951 x 998 km, 83.0° (Epoch: 08 September)

Event Time Altitude Azimuth Distance (km) Brightness Sun altitude
Rises 03:00:55 0° 348° (NNW) 3,639 7.4 -10.1°
Reaches altitude 10° 03:03:26 10° 346° (NNW) 2,691 6.6 -9.8°
Maximum altitude 03:09:29 64° 266° (W) 1,057 4.0 -9.0°
Drops below altitude 10° 03:15:32 10° 187° (S) 2,690 5.9 -8.1°
Sets 03:18:03 0° 184° (S) 3,638 6.6 -7.8°
